Vertical_Velocity
-2 -0 -1 -0 -2 -1 -2 -0 -1 2 0 26 1 1 -3 -1 -1 -2 -2 5 3 2
5 7 5 1 2 -2 -1 0 12 -4 3 -5 -4 3 2 1 3 3 0 -3 -2 -0
4 -2 2 3 3 -2 1 4 1 1 -3 1 2 0 -1 -3 -5 -6 -5 -1 1 2
0 1 1 0 -2 1 -1 -2 -4 0 3 -0 -5 -2 -2 -4 -1 -1 1 2 2 1
0 1 -1 -1 -2 2 3 3 3 -5 -7 -5 -1 -0 0 -1 3 1 3 3 0 -2
-1 1 -0 -1 0 1 1 1 0 0 1 3 4 1 2 4 4 -1 -2 -0 0 -1
-2 -2 1 -1 0 -2 -1 -0 1 2 2 2 -0 3 2 1 3 1 1 -2 -3 3
-1 -2 -2 -0 0 -3 -0 2 1 0 -1 1 -1 -1 0 -2 -1 -1 0 -2 -0 -3
0 -2 2 2 2 4 2 -3 -0 -2 2 12 7 3 3 -1 2 -3 -5 -0 0 -2
-0 -1 0 0 -1 -2 -3 -1 -1 0 1 2 -0 -2 -1 -0 -2 -2 -1 -1 -3 -3
0 -2 -1 -1 -3 -1 3 1 2 3 1 -0 2 -0 -3 -3 0 0 -2 -4 -3 -3
-1 -1 1 1 -2 1 5 3 2 -1 1 3 5 -2 -1 -1 -3 -1 -1 -4 -1 -2
-3 5 9 3 1 1 1 4 2 7 1 -0 -1 1 0 1 1 -1 -6 -5 -3 -3
2 1 1 2 -1 3 1 7 5 -5 -2 -5 -5 2 -0 -0 0 -3 -2 -1 -0 -1
Height
5746 5743 5738 5733 5727 5721 5715 5711 5706 5702 5693 5692 5682 5675 5668 5661 5653 5646 5639 5632 5623 5615
5738 5733 5728 5722 5718 5713 5708 5703 5697 5692 5685 5677 5669 5663 5655 5647 5639 5631 5623 5615 5608 5600
5728 5723 5719 5714 5709 5704 5699 5693 5687 5680 5672 5665 5658 5650 5641 5633 5625 5617 5609 5600 5592 5583
5720 5716 5710 5705 5700 5693 5687 5681 5674 5667 5660 5651 5643 5637 5629 5619 5611 5602 5594 5585 5575 5565
5711 5706 5701 5694 5687 5682 5676 5669 5663 5654 5646 5638 5631 5623 5614 5606 5598 5588 5578 5568 5556 5544
5701 5695 5689 5683 5677 5671 5665 5658 5650 5643 5634 5627 5619 5609 5600 5591 5580 5569 5558 5547 5535 5524
5689 5684 5678 5672 5665 5660 5653 5646 5639 5630 5622 5612 5603 5593 5583 5571 5561 5549 5538 5527 5517 5508
5678 5672 5666 5660 5654 5647 5640 5632 5624 5616 5607 5596 5586 5576 5566 5555 5543 5531 5520 5510 5500 5490
5666 5660 5655 5648 5641 5634 5626 5618 5609 5600 5592 5582 5570 5559 5548 5537 5527 5514 5503 5494 5483 5472
5654 5648 5641 5634 5627 5620 5613 5605 5594 5585 5576 5565 5554 5542 5531 5519 5508 5498 5488 5478 5469 5459
5641 5634 5629 5621 5614 5606 5596 5588 5579 5569 5559 5549 5536 5525 5513 5502 5493 5483 5473 5463 5454 5444
5628 5621 5615 5608 5600 5594 5585 5575 5566 5555 5544 5534 5521 5508 5496 5486 5478 5469 5459 5449 5439 5429
5615 5608 5602 5593 5585 5576 5569 5560 5550 5539 5526 5515 5504 5492 5482 5472 5461 5454 5444 5436 5425 5416
5601 5593 5586 5578 5570 5561 5552 5544 5533 5522 5509 5497 5486 5477 5466 5456 5447 5437 5429 5420 5410 5402